Regional Weather Roundup
Issued by NWS Midland/Odessa, TX

Skip options and go directly to product.
Home | Oldest Version | Previous Version | Current Version | All | Text Only | Save Text | Print | Product List | Glossary On

Skip product version selection by date and time.   
444
ASUS44 KMAF 300501
RWRMAF
MIDLAND AREA WEATHER ROUNDUP
NATIONAL WEATHER SERVICE MIDLAND TX
1200 AM CDT FRI SEP 30 2016

...IN SOUTHWEST TEXAS AND SOUTHEAST NEW MEXICO...

CITY           SKY/WX    TMP DP  RH WIND       PRES   REMARKS
ALPINE         CLOUDY    60  51  73 CALM      30.41R
ANDREWS        FAIR      58  51  78 CALM      30.32F
ARTESIA        CLEAR     61  50  67 S8        30.32R
BIG SPRING     MOCLDY    63  50  63 E9        30.33S
CARLSBAD       CLEAR     57  51  80 SW6       30.29S
DRYDEN           N/A     66  57  72 N8        30.24S
FORT STOCKTON  CLEAR     65  54  67 SE6       30.29S
GUAD PASS      CLEAR     63  42  46 NE22G30   30.40S
HOBBS          CLEAR     57  50  77 E7        30.34S
MARFA          CLEAR     57  52  83 NE8       30.38S
MIDLAND AIRPK  CLEAR     66  49  53 E6        30.32S
MIDLAND INTL   CLEAR     65  49  56 E8        30.30F
ODESSA         CLEAR     63  48  58 E10       30.31F
PECOS          CLEAR     65  53  65 E6        30.27S
PRESIDIO       MOCLDY    75  54  47 NE13G18   30.23S
SEMINOLE       CLEAR     58  51  78 CALM      30.34S
SNYDER           N/A     61  47  59 NE3       30.32S
WINK           CLEAR     66  50  56 E8        30.28R
$$
...OTHER STATIONS IN TEXAS...

CITY           SKY/WX    TMP DP  RH WIND       PRES   REMARKS
ABILENE        PTCLDY    59  48  67 NE5       30.30S
AMARILLO       CLEAR     55  44  66 SE12      30.33F
AUSTIN         PTCLDY    60  53  77 N7        30.21S
BROWNSVILLE    CLEAR     77  71  82 N6        30.10R
CORPUS CHRISTI PTCLDY    77  59  53 NE13      30.14R
DALLAS FTW     CLEAR     65  52  62 N7        30.23S
DEL RIO        CLEAR     74  58  57 NE8       30.19R
EL PASO        MOCLDY    73  42  32 E10       30.26R
HOUSTON INT    CLEAR     65  56  72 N3        30.17S
LUBBOCK        PTCLDY    55  47  74 SE7       30.33S
SAN ANGELO     PTCLDY    61  53  75 CALM      30.27F
SAN ANTONIO    PTCLDY    69  51  52 N7        30.20F
WACO           CLEAR     56  51  84 N5        30.23S HAZE
WICHITA FALLS  NOT AVBL
$$
...OTHER LOCATIONS IN NEW MEXICO...

CITY           SKY/WX    TMP DP  RH WIND       PRES   REMARKS
ALAMAGORDO     PTCLDY    72  41  33 N3        30.29R
ALBUQUERQUE    CLOUDY    60  58  92 W7        30.40S
CANNON AFB     NOT AVBL
CLOVIS         CLOUDY    55  46  71 S7        30.35F
HOLLOMAN AFB   CLOUDY    73  43  34 S5        30.27R
ROSWELL        CLOUDY    62  46  55 SW6       30.32R
RUIDOSO        CLOUDY    55  41  58 SE5       30.50R
SANTA FE       CLOUDY    58  49  72 E7        30.42F
TRUTH OR CONSE CLOUDY    67  53  61 N13G22    30.35R
TUCUMCARI      CLEAR     64  47  53 S10       30.30S
$$

USA.gov is the U.S. government's official web portal to all federal, state and local government web resources and services.